Regional Weather Roundup
Issued by NWS

Home | Current Version | Previous Version | Text Only | Print | Product List | Glossary On
Versions: 1 2 3 4 5 6 7 8 9 10 11 12 13 14 15 16 17 18 19 20 21 22 23 24 25 26 27 28 29 30 31 32 33 34 35 36 37 38 39 40 41 42 43 44 45 46 47 48 49 50
000
ASUS46 KPQR 281810
RWROR

OREGON REGIONAL WEATHER ROUNDUP
NATIONAL WEATHER SERVICE PORTLAND OR
1100 AM PDT MON JUL 28 2014

NOTE: "FAIR" INDICATES FEW OR NO CLOUDS BELOW 12,000 FEET WITH
NO SIGNIFICANT WEATHER AND/OR OBSTRUCTIONS TO VISIBILITY.

ORZ001>013-281900-
NORTHWEST OREGON


CITY           SKY/WX    TMP DP  RH WIND       PRES   REMARKS
ASTORIA        SUNNY     66  59  78 NW8       30.11F
6HR MIN TEMP:  54; 6HR MAX TEMP:  67;

NEWPORT        SUNNY     55  54  94 N12       30.13F
PORTLAND       SUNNY     75  57  53 CALM      30.08S
6HR MIN TEMP:  63; 6HR MAX TEMP:  75;

VANCOUVER WA   SUNNY     75  57  53 VRB6      30.07F
6HR MIN TEMP:  60; 6HR MAX TEMP:  76;

SCAPPOOSE      SUNNY     79  54  41 NE12      30.06F
6HR MIN TEMP:  65; 6HR MAX TEMP:  79;

HILLSBORO      SUNNY     78  56  46 E3        30.07F
6HR MIN TEMP:  55; 6HR MAX TEMP:  78;

AURORA         SUNNY     77  55  46 N8        30.08F
6HR MIN TEMP:  58; 6HR MAX TEMP:  77;

MCMINNVILLE    SUNNY     81  53  37 NE9       30.08F
6HR MIN TEMP:  57; 6HR MAX TEMP:  81;

SALEM          SUNNY     79  53  40 VRB7      30.07S
6HR MIN TEMP:  58; 6HR MAX TEMP:  79;

CORVALLIS      SUNNY     81  55  41 NE6       30.09F
EUGENE         SUNNY     81  54  39 VRB7      30.07F
6HR MIN TEMP:  52; 6HR MAX TEMP:  81;

$$

ORZ021-028-281900-
SOUTHWEST OREGON


CITY           SKY/WX    TMP DP  RH WIND       PRES   REMARKS
NORTH BEND     MOSUNNY   63  57  82 N12       30.09F
6HR MIN TEMP:  52; 6HR MAX TEMP:  63;

BROOKINGS      PTCLDY    62  56  81 W5        30.05S
ROSEBURG       SUNNY     80  58  46 CALM      30.06F
6HR MIN TEMP:  61; 6HR MAX TEMP:  80;

SEXTON SUMMIT  SUNNY     79  55  43 VRB3      30.19S
6HR MIN TEMP:  69; 6HR MAX TEMP:  79;

MEDFORD        SUNNY     85  55  35 CALM      30.05F
6HR MIN TEMP:  64; 6HR MAX TEMP:  85;

$$

ORZ009-041-281900-
COLUMBIA GORGE


CITY           SKY/WX    TMP DP  RH WIND       PRES   REMARKS
TROUTDALE      SUNNY     74  59  59 S3        30.06F
6HR MIN TEMP:  59; 6HR MAX TEMP:  75;

THE DALLES     SUNNY     84  60  44 NW10      30.00F
6HR MIN TEMP:  63; 6HR MAX TEMP:  84;

$$

ORZ029>031-042>050-061>064-281900-
EASTERN OREGON


CITY           SKY/WX    TMP DP  RH WIND       PRES   REMARKS
REDMOND        SUNNY     84  38  19 CALM      30.15F
6HR MIN TEMP:  46; 6HR MAX TEMP:  85;

BEND           CLEAR     82  39  21 CALM      30.18F
KLAMATH FALLS  SUNNY     83  42  23 NW3       30.21F
6HR MIN TEMP:  47; 6HR MAX TEMP:  83;

LAKEVIEW       SUNNY     84  39  20 NE3       30.25F
HERMISTON      SUNNY     86  54  33 VRB3      30.01F
6HR MIN TEMP:  64; 6HR MAX TEMP:  87;

PENDLETON      SUNNY     86  44  23 VRB3      30.05S
6HR MIN TEMP:  67; 6HR MAX TEMP:  87;

JOHN DAY       CLEAR     85  38  19 W7        30.17S
MEACHAM        MOSUNNY   81  46  29 VRB5      30.18S
6HR MIN TEMP:  55; 6HR MAX TEMP:  82;

LA GRANDE      MOSUNNY   88  46  23 CALM      30.10S
6HR MIN TEMP:  63; 6HR MAX TEMP:  88;

BAKER CITY     SUNNY     88  40  18 NW7       30.14F
6HR MIN TEMP:  58; 6HR MAX TEMP:  88;

BURNS          SUNNY     88  37  16 VRB5      30.18F
6HR MIN TEMP:  61; 6HR MAX TEMP:  88;

ROME             N/A     86  35  16 NE8       30.16S
6HR MIN TEMP:  60; 6HR MAX TEMP:  87;

ONTARIO        MOSUNNY   95  37  13 VRB3      30.04S HX  90
6HR MIN TEMP:  71; 6HR MAX TEMP:  95;

$$


USA.gov is the U.S. government's official web portal to all federal, state and local government web resources and services.